{"data":{"norad_id":37605,"intl_designator":"2011-022A","name":"GSAT-8 (GAGAN/PRN 127)","alt_names":[],"object_type":"PAYLOAD","status":"ACTIVE","operator":null,"country":"IND","launch_date":"2011-05-20","launch_site_code":"FRGUI","launch_vehicle":null,"mission":null,"orbit_class":"UNKNOWN","rcs_meters":6.3096,"size_class":null,"mass_kg":null,"dimensions":null,"purposes":["comms","nav"],"wikipedia_slug":null,"has_3d_model":false,"image_url":null,"decayed_at":null,"tle_current":{"epoch":"2026-09-18T22:24:59.508576Z","epoch_age_seconds":150041,"freshness":"FRESH","line1":"1 37605U 11022A   26261.93402209  .00000080  00000+0  00000+0 0  9999","line2":"2 37605   2.3665  80.5718 0006022 157.1771 151.4665  1.00273106 54156","mean_motion":1.00273106,"eccentricity":0.0006022,"inclination_deg":2.3665,"raan_deg":80.5718,"arg_perigee_deg":157.1771,"mean_anomaly_deg":151.4665,"bstar":0,"rev_number":5415,"period_min":1436.0779848587,"perigee_km":35760.833262422,"apogee_km":35811.616019583,"semimajor_km":42164.361641003,"source":"CELESTRAK","updated_at":"2026-09-20T09:00:46.833369Z"}}}